Regional Weather Roundup
Issued by NWS

Home | Current Version | Previous Version | Graphics & Text | Print | Product List | Glossary On
Versions: 1 2 3 4 5 6 7 8 9 10 11 12 13 14 15 16 17 18 19 20 21 22 23 24 25 26 27 28 29 30 31 32 33 34 35 36 37 38 39 40 41 42 43 44 45 46 47 48 49 50
000
ASUS43 KLMK 190102
RWRKY
KENTUCKY REGIONAL WEATHER ROUNDUP
NATIONAL WEATHER SERVICE LOUISVILLE KY
800 PM EST THU JAN 18 2018

NOTE "FAIR" INDICATES FEW OR NO CLOUDS BELOW 12,000 FEET
WITH NO SIGNIFICANT WEATHER AND/OR OBSTRUCTIONS TO VISIBILITY.

KYZ001>023-026-027-061>063-070>075-190200-
WESTERN AND SOUTH CENTRAL KENTUCKY

CITY           SKY/WX    TMP DP  RH WIND       PRES   REMARKS
PADUCAH        FAIR      25  12  58 SW5       30.32F WCI  19
HENDERSON      FAIR      25  13  60 S13       30.30S WCI  14
OWENSBORO      FAIR      22  13  68 S8        30.32S WCI  12
HOPKINSVILLE   FAIR      25  10  54 SW5       30.34R WCI  19
BOWLING GREEN  FAIR      25  15  66 S3        30.34F
GLASGOW        NOT AVBL
$$

KYZ024-025-028>034-038-045-046-053-190200-
NORTH CENTRAL KENTUCKY

CITY           SKY/WX    TMP DP  RH WIND       PRES   REMARKS
LOUISVILLE/SDF FAIR      29  13  51 S9        30.30S WCI  20
LOUISVILLE/LOU FAIR      28  14  55 S9        30.31S WCI  19
FORT KNOX      NOT AVBL
$$

KYZ035>037-039>044-047>052-055>060-089>105-190200-
NORTHEAST KENTUCKY

CITY           SKY/WX    TMP DP  RH WIND       PRES   REMARKS
LEXINGTON      FAIR      23  10  57 S9        30.29S WCI  13
COVINGTON      FAIR      25  14  63 S9        30.23S WCI  15
FRANKFORT      FAIR      25  11  55 SW9       30.29R WCI  15
$$

KYZ054-064>069-076>088-106>120-190200-
SOUTHEAST KENTUCKY

CITY           SKY/WX    TMP DP  RH WIND       PRES   REMARKS
JACKSON        FAIR      25  12  58 SW5       30.28S WCI  19
LONDON         FAIR      25  13  60 SW5       30.31F WCI  19
SOMERSET       NOT AVBL
MIDDLESBORO    FAIR      22  17  81 CALM      30.36R
MONTICELLO     FAIR      12   6  77 CALM      30.35F
$$





USA.gov is the U.S. government's official web portal to all federal, state and local government web resources and services.